Wind_Speed
5 5 6 5 4 3 3 4 5 5 5 7 8 9 9 10 11 12 12 12 13 13 12 10 8 9 9 8 8 9 10 7
7 6 8 7 5 5 5 5 5 5 5 6 7 8 9 10 11 12 13 14 15 16 14 13 13 11 10 8 8 8 13 11
13 12 9 9 7 7 7 5 5 6 6 6 6 7 8 10 10 13 14 15 16 17 16 15 12 11 9 8 8 7 6 9
17 13 13 12 8 7 9 7 6 6 6 6 5 6 8 10 12 13 13 15 17 19 19 16 13 13 11 11 10 13 11 10
17 17 15 15 11 9 10 10 8 7 7 6 6 6 7 9 11 12 12 14 17 20 20 18 16 15 15 13 13 14 12 14
21 20 18 17 16 13 12 12 13 9 8 8 7 6 7 9 11 12 12 13 16 19 20 19 19 18 17 16 16 17 17 14
22 22 20 20 21 20 17 16 15 13 12 10 8 8 7 8 10 11 12 13 14 17 19 20 20 21 21 20 19 19 20 18
27 24 23 24 26 26 24 21 20 17 15 13 12 11 9 8 9 10 12 12 13 14 18 21 22 22 23 22 22 22 21 20
28 26 25 22 27 28 29 24 23 22 18 18 15 15 14 11 10 9 10 12 14 16 18 21 22 23 23 24 24 25 21 22
32 28 25 23 24 29 28 24 27 26 23 22 19 17 17 16 13 10 11 12 13 15 18 20 21 23 24 25 25 26 25 23
35 31 27 24 23 24 24 23 23 21 20 23 22 20 19 20 17 14 13 12 12 14 16 18 21 22 23 25 27 27 26 26
42 37 33 31 30 28 27 26 23 22 20 20 20 22 22 22 21 18 15 12 12 12 15 17 19 21 24 26 25 26 27 26
37 40 35 33 33 32 31 29 29 28 24 23 23 23 23 24 23 22 19 15 13 14 15 17 18 20 23 25 28 29 29 28
37 39 38 38 37 36 37 35 34 31 29 28 28 29 25 23 24 25 23 19 17 16 16 16 18 20 21 26 27 30 32 29
41 42 40 42 43 43 45 43 41 38 34 31 32 34 30 23 24 27 28 24 21 19 18 18 18 19 21 22 25 29 26 28
39 39 38 37 37 43 45 40 39 38 39 35 35 35 33 27 22 25 29 29 26 25 22 22 21 20 22 24 25 28 28 32
39 37 42 41 36 41 38 37 34 34 34 37 38 36 31 32 29 27 29 30 30 30 29 26 24 24 24 23 25 26 28 28
51 48 48 41 38 40 36 36 34 34 36 38 38 37 35 35 35 31 28 29 33 34 33 31 27 27 26 26 26 25 27 30
42 37 38 37 37 36 36 35 34 32 31 37 41 41 42 41 33 32 33 33 33 37 35 33 31 30 28 28 27 27 27 27
31 35 31 31 33 34 35 34 35 37 35 35 39 43 36 38 42 32 31 35 35 33 34 34 33 32 30 29 29 27 26 26
Wind_Direction
247 277 246 244 234 220 227 221 227 244 266 279 280 275 271 268 260 248 247 252 255 256 259 241 237 246 251 273 268 250 242 247
230 259 246 242 236 221 222 217 222 231 243 267 278 279 274 272 264 254 248 249 254 256 259 256 262 261 259 277 268 269 249 240
237 255 239 227 231 233 231 227 231 230 231 243 269 278 276 272 265 258 254 247 251 255 258 262 267 258 265 267 264 246 241 250
243 243 243 227 239 236 245 239 236 233 234 240 255 272 275 270 267 262 258 256 248 249 252 256 260 271 271 261 258 244 249 260
259 246 243 237 239 250 244 247 246 240 241 243 254 270 277 276 273 272 267 266 259 249 252 256 254 263 267 263 259 260 261 252
248 238 235 239 239 248 243 248 249 244 245 247 259 266 279 275 275 273 268 266 261 253 250 250 251 258 265 268 263 261 265 265
232 232 233 241 243 248 241 244 249 244 250 252 261 269 277 273 271 275 274 269 264 258 250 248 250 252 258 263 263 261 261 267
229 236 237 240 248 243 239 238 243 245 250 258 263 271 273 276 269 274 277 275 267 259 253 249 249 249 253 258 262 261 263 261
230 234 237 242 242 244 246 244 244 249 250 257 261 269 276 274 268 270 276 273 268 261 257 254 252 255 256 259 263 268 265 264
230 233 230 237 246 243 241 242 243 247 250 254 258 262 271 274 271 265 271 275 275 270 264 261 257 257 258 259 262 265 267 265
237 235 228 229 238 238 233 229 232 236 243 248 251 257 263 269 269 264 267 276 281 276 270 266 264 263 262 262 263 264 266 266
238 233 230 234 233 233 234 231 230 235 240 246 252 253 258 258 263 265 264 270 276 280 275 270 267 264 263 264 268 267 264 259
222 227 228 231 233 235 238 242 244 237 236 242 252 255 256 252 254 260 263 264 268 272 279 276 273 268 264 263 259 260 260 262
231 234 233 237 241 245 247 246 246 243 242 239 245 255 257 255 250 255 258 257 261 269 278 282 278 275 270 269 265 264 262 262
233 237 241 242 242 243 245 245 243 242 243 240 242 248 255 255 256 252 255 255 259 264 273 283 287 284 276 272 267 270 275 273
234 232 236 241 244 246 241 242 240 243 242 242 241 246 251 252 260 258 258 259 259 264 268 277 285 287 282 281 278 273 275 279
235 242 245 249 250 244 243 242 238 235 235 239 240 244 242 246 251 254 250 255 258 260 266 271 278 283 284 281 284 273 270 277
243 246 251 250 249 244 244 240 248 247 240 240 238 240 246 241 244 248 256 260 261 256 258 264 272 279 285 285 282 281 273 269
231 246 239 236 243 246 248 249 246 248 248 244 241 239 247 245 241 248 257 259 260 257 254 258 264 273 280 284 287 282 272 266
227 236 230 233 238 246 249 250 253 254 255 254 247 245 246 283 237 241 256 258 257 250 250 254 258 267 278 283 285 279 270 263
Height
3132 3133 3135 3135 3136 3137 3138 3139 3139 3140 3141 3142 3143 3144 3144 3145 3145 3147 3148 3150 3151 3153 3154 3155 3157 3158 3158 3159 3159 3159 3160 3161
3130 3131 3132 3134 3135 3136 3137 3137 3138 3139 3139 3141 3142 3142 3143 3144 3144 3145 3146 3148 3150 3151 3152 3154 3155 3156 3156 3156 3157 3158 3158 3159
3127 3129 3129 3131 3133 3134 3136 3136 3137 3138 3138 3139 3140 3141 3142 3143 3143 3144 3145 3146 3148 3149 3150 3152 3153 3154 3155 3155 3155 3156 3157 3157
3124 3126 3128 3128 3130 3131 3134 3135 3136 3136 3137 3138 3138 3139 3140 3141 3142 3142 3143 3145 3146 3146 3148 3149 3151 3152 3153 3153 3153 3155 3155 3156
3121 3123 3125 3126 3127 3128 3131 3132 3133 3135 3136 3136 3137 3137 3138 3139 3140 3141 3141 3143 3143 3144 3145 3147 3149 3149 3150 3151 3151 3151 3152 3153
3117 3119 3121 3123 3124 3126 3127 3129 3131 3132 3134 3135 3135 3135 3136 3137 3138 3139 3140 3140 3141 3141 3142 3143 3145 3146 3147 3148 3149 3149 3149 3150
3112 3114 3116 3119 3121 3122 3124 3126 3128 3129 3131 3132 3133 3134 3134 3134 3136 3136 3137 3138 3138 3139 3139 3140 3141 3143 3144 3144 3145 3146 3146 3147
3107 3110 3112 3113 3116 3118 3120 3122 3124 3126 3128 3130 3131 3131 3132 3132 3133 3134 3135 3135 3136 3136 3136 3136 3137 3138 3139 3140 3141 3142 3143 3143
3100 3104 3107 3108 3111 3114 3115 3118 3120 3123 3125 3126 3128 3129 3130 3130 3130 3131 3132 3132 3133 3133 3133 3132 3133 3134 3135 3136 3136 3137 3139 3139
3096 3098 3100 3103 3105 3108 3110 3113 3116 3118 3120 3122 3124 3125 3127 3128 3128 3128 3129 3129 3129 3129 3129 3129 3129 3129 3131 3131 3131 3131 3132 3134
3090 3092 3095 3098 3100 3103 3106 3108 3110 3113 3115 3118 3120 3121 3123 3124 3125 3125 3125 3125 3125 3125 3126 3125 3125 3125 3125 3126 3126 3126 3127 3128
3081 3084 3087 3092 3094 3096 3100 3102 3104 3107 3110 3113 3115 3116 3117 3119 3121 3121 3121 3121 3122 3122 3122 3121 3121 3120 3120 3121 3121 3121 3121 3122
3068 3073 3078 3082 3086 3089 3092 3095 3098 3102 3104 3107 3109 3110 3111 3113 3115 3116 3117 3117 3118 3118 3118 3117 3116 3116 3115 3114 3115 3115 3115 3115
3060 3065 3069 3074 3079 3084 3085 3090 3092 3095 3098 3100 3102 3104 3106 3107 3109 3111 3112 3113 3113 3113 3113 3113 3111 3111 3109 3109 3107 3109 3109 3111
3051 3056 3061 3066 3070 3074 3075 3079 3083 3087 3090 3093 3095 3098 3100 3102 3104 3105 3106 3107 3108 3108 3108 3108 3107 3105 3105 3104 3101 3101 3103 3104
3041 3047 3052 3057 3060 3062 3066 3069 3074 3079 3082 3086 3087 3091 3093 3096 3098 3099 3100 3101 3103 3104 3103 3102 3102 3101 3100 3099 3097 3096 3097 3097
3032 3038 3043 3049 3052 3053 3060 3063 3067 3070 3073 3075 3079 3081 3085 3088 3091 3091 3093 3094 3096 3097 3098 3097 3096 3096 3095 3094 3091 3091 3091 3090
3025 3032 3035 3040 3044 3047 3052 3057 3060 3062 3066 3068 3070 3073 3077 3078 3081 3083 3085 3087 3088 3089 3090 3090 3090 3090 3089 3088 3087 3085 3085 3085
3016 3023 3026 3031 3036 3040 3044 3049 3052 3055 3059 3060 3062 3064 3068 3070 3070 3074 3076 3078 3079 3080 3081 3082 3083 3083 3083 3082 3080 3079 3079 3079
3010 3016 3019 3024 3029 3033 3037 3041 3044 3047 3050 3051 3053 3057 3060 3063 3058 3065 3068 3070 3069 3070 3072 3074 3075 3075 3076 3075 3074 3073 3073 3073